Location: The Jewett Observatory
(46.7288°N, 117.1525°W)
Time: 17:40:20
(UTC-07:00)

Daily predictions for brighter satellites

Satellite Brightness Start Highest point End
(mag) Time Altitude Azimuth Time Altitude Azimuth Time Altitude Azimuth
Cosmos 1825 3.6 20:57:39 10° SE 21:00:31 20° E 21:03:24 10° NE
Meteor 1-10 Rocket 4.3 20:55:46 10° N 21:01:41 84° E 21:07:26 10° SSE
Cosmos 2278 Rocket 3.3 20:57:30 10° SSE 21:01:48 23° E 21:06:08 10° NE
ERBS 3.7 20:59:51 10° WNW 21:03:02 33° SW 21:06:10 10° SSE
SPOT 5 3.4 20:58:17 10° SE 21:03:24 53° ENE 21:08:37 10° N
Cosmos 1862 4.4 21:01:33 10° SSE 21:05:02 28° E 21:08:32 10° NNE
Cosmos 1844 4.3 21:00:05 10° S 21:05:17 36° ESE 21:10:32 10° NE
NOSS 2-2 (C) 3.6 21:02:15 10° SSW 21:06:21 64° SE 21:11:14 10° NE
Envisat 3.0 21:02:16 10° SSE 21:07:19 76° ENE 21:12:26 10° N
deb Chang Zheng 4 3.8 21:03:01 10° NNE 21:07:20 52° E 21:11:39 10° S
YAOGAN 6 3.6 21:04:24 10° SE 21:07:29 29° ENE 21:10:35 10° N
Cosmos 1408 3.9 21:05:19 10° SE 21:08:16 23° E 21:11:14 10° NE
Terra 3.9 21:06:21 10° E 21:08:44 14° ENE 21:11:08 10° NNE
Cosmos 1624 Rocket 4.0 21:03:33 10° SSW 21:08:49 80° ESE 21:14:09 10° NNE
SL-08 ROCKET BODY 4.4 21:02:52 10° S 21:08:53 79° E 21:14:51 10° N
Cosmos 1844 Rocket 2.9 21:04:12 10° S 21:09:39 51° ESE 21:15:06 10° NE
Cosmos 1908 Rocket 4.1 21:06:51 10° SSE 21:10:57 40° E 21:15:07 10° NNE
Cosmos 1356 Rocket 3.8 21:08:49 10° SSW 21:13:03 71° WNW 21:17:21 10° N
Cosmos 1378 Rocket 4.0 21:08:53 10° N 21:13:03 45° ENE 21:17:11 10° SSE
Cosmos 1733 Rocket 3.1 21:10:30 10° S 21:14:54 85° W 21:19:20 10° N
Cosmos 1242 Rocket 4.1 21:12:22 10° NNE 21:15:17 22° ENE 21:18:09 10° ESE
Cosmos 2082 Rocket 3.6 21:13:02 10° N 21:17:50 27° NE 21:22:36 10° ESE
H-2A R/B 3.6 21:15:48 10° ESE 21:19:54 23° ENE 21:23:58 10° N
SL-8 R/B 3.7 21:15:16 10° SW 21:20:01 62° SSE 21:24:47 10° ENE
Cosmos 2154 Rocket 4.1 21:14:04 10° SSE 21:20:06 56° E 21:26:09 10° NNE
USA 245 4.1 21:17:31 11° SE 21:20:22 32° ENE 21:23:59 10° N
BREEZE-M DEB (TANK) 2.7 21:19:15 10° WSW 21:21:50 75° SSE 21:28:03 10° ENE
MetOp-A 4.3 21:16:38 10° SSE 21:21:54 65° ENE 21:27:13 10° N
Cosmos 407 Rocket 3.6 21:17:27 10° NNW 21:22:44 82° WSW 21:28:02 10° SSE
Gbstr 26 Del rocket 4.4 21:19:19 10° WNW 21:24:47 47° N 21:29:15 10° ENE
NOSS 2-2 (E) 3.8 21:20:48 10° SW 21:25:03 84° NW 21:30:14 10° NE
Cosmos 2263 Rocket 4.2 21:20:35 10° WSW 21:25:42 34° NW 21:30:49 10° NNE
Cosmos 2084 4.2 21:23:30 10° S 21:26:38 24° ESE 21:29:45 10° ENE
Cosmos 2184 Rocket 4.3 21:20:51 10° SSW 21:26:58 71° W 21:33:11 10° N
Cosmos 1782 3.4 21:25:37 10° NNW 21:29:36 58° W 21:33:33 10° S
OPS 6432 4.2 21:26:36 10° SW 21:29:55 87° NW 21:33:03 10° NE
ERS-1 Rocket 3.9 21:25:31 10° S 21:30:22 47° W 21:35:15 10° NNW
Meteor 1-27 Rocket 3.7 21:25:37 10° N 21:31:15 87° E 21:36:46 10° S
Cosmos 1452 Rocket 3.7 21:27:43 10° S 21:32:48 52° ESE 21:37:56 10° NNE
SL-08 RB Rocket 4.5 21:29:16 12° SE 21:33:06 38° ENE 21:37:24 10° N
Cosmos 1140 Rocket 3.8 21:28:57 10° NNW 21:33:59 52° ENE 21:38:19 14° SE
Cosmos 1606 2.8 21:30:25 10° N 21:34:23 85° W 21:38:18 10° S
SPOT 1/Viking Rocket 3.8 21:29:54 11° SSE 21:34:49 57° ENE 21:39:56 10° N
Cosmos 1939 Rocket 3.9 21:33:21 10° S 21:37:03 43° W 21:40:49 10° NNW
Nimbus 7 Rocket 4.4 21:31:14 10° NNE 21:37:11 81° ESE 21:43:10 10° SSW
H-2A R/B 2.9 21:36:55 10° S 21:41:06 49° W 21:45:15 10° NNW
NOAA 11 4.4 21:41:26 13° SSE 21:46:18 62° ENE 21:51:44 10° N
CZ-4B R/B 3.7 21:43:26 10° NNE 21:48:16 48° E 21:52:58 10° S
CZ-4 R/B 4.3 21:49:34 10° NNE 21:54:01 40° E 21:57:23 16° SSE
USA 234 4.0 21:48:56 10° ENE 21:54:27 28° SE 21:59:54 10° S
Cosmos 1184 Rocket 2.8 21:51:54 12° S 21:54:51 65° E 21:58:11 10° NNE
Cosmos 1850 Rocket 4.1 21:57:47 10° NNW 22:03:06 69° ENE 22:06:48 20° SSE
Okean 2 Rocket 3.0 22:00:11 11° S 22:04:21 73° E 22:08:46 10° NNE
NOSS 5 (C) 4.1 22:02:27 10° SSW 22:05:44 74° SE 22:08:51 10° NE
IGS 5A 4.3 22:09:04 22° ESE 22:11:09 37° ENE 22:15:01 10° N
BREEZE-M DEB 4.3 22:08:15 10° SW 22:12:01 49° SSE 22:13:26 24° E
Cosmos 2218 Rocket 4.2 22:10:31 15° SSE 22:15:42 60° E 22:22:00 10° NNE
DELTA 2 DEB (DPAF) 4.2 22:14:02 24° SSE 22:16:42 68° ENE 22:21:10 10° N
BREEZE-M TANK 3.5 22:05:29 10° W 22:19:58 81° S 22:23:06 16° E
COSMOS 2487 3.7 22:18:28 10° NW 22:21:51 37° WSW 22:24:02 18° SSW
Cosmos 1741 Rocket 4.0 22:17:03 10° NNW 22:22:19 86° WSW 22:25:32 24° SSE
Cosmos 1782 Rocket 4.1 22:19:09 10° SSW 22:23:34 60° WNW 22:28:01 10° N
ARGOS 3.5 22:24:10 16° S 22:28:21 60° WSW 22:33:40 10° NNW
Cosmos 1727 Rocket 4.0 22:22:53 10° N 22:29:03 67° E 22:32:48 25° SSE
Landsat 7 3.8 22:27:14 25° SSE 22:30:03 87° WSW 22:34:51 10° NNW
Meteor 1-18 Rocket 4.4 22:27:04 10° N 22:32:58 71° ENE 22:36:23 26° SSE
ISS -2.6 22:29:54 10° SW 22:37:53 - ENE 22:32:10 36° SSW
Cosmos 1825 4.0 22:32:34 10° SW 22:35:58 31° WNW 22:39:25 10° N
Cosmos 1975 Rocket 4.3 22:32:17 10° NNW 22:36:15 36° W 22:39:36 13° SSW
Cosmos 1959 Rocket 4.4 22:31:22 17° S 22:36:18 83° E 22:42:27 10° N
Meteor 1-14 Rocket 4.2 22:33:19 16° S 22:37:58 88° ESE 22:43:36 10° NNE
USA 229 DEB 3.8 22:32:08 10° NW 22:39:16 85° NE 22:43:40 26° SE
USA 229 3.8 22:32:14 10° NW 22:39:22 84° NE 22:43:47 26° SE
CARTOSAT-1 3.5 22:38:55 33° SSE 22:40:51 88° ENE 22:45:11 10° NNW
APEX 3.5 22:38:24 20° SSW 22:41:07 78° ESE 22:46:20 10° NNE
DNEPR-1 R/B 4.4 22:38:34 10° NW 22:43:51 48° WSW 22:46:00 28° S
Cosmos 1833 Rocket 2.6 22:39:32 10° NNW 22:45:12 82° ENE 22:47:59 31° SSE
Cosmos 2278 Rocket 2.7 22:39:48 10° SW 22:45:24 62° WNW 22:51:04 10° NNE
Terra 1.8 22:43:30 31° SSE 22:45:47 87° WSW 22:50:35 10° NNW
Timation 2 Rocket 4.4 22:40:27 10° NW 22:46:14 52° WSW 22:49:44 23° S
Cosmos 1536 Rocket 3.6 22:44:40 10° N 22:49:10 82° W 22:51:04 34° S
Spot 4 3.8 22:47:39 34° SSE 22:49:49 79° ENE 22:54:41 10° NNW
Cosmos 1812 2.7 22:46:07 10° N 22:49:59 66° E 22:50:55 47° SE
Cosmos 1242 Rocket 4.3 22:47:13 10° NW 22:50:20 27° W 22:52:23 16° SW
Cosmos 1339 Rocket 4.4 22:50:07 10° N 22:56:18 88° E 22:59:35 30° S
ASTEX 1 3.5 22:51:33 10° NNE 22:56:27 58° E 22:58:10 37° SSE
SL-8 Rocket 4.4 22:50:39 10° SSW 22:56:46 60° WNW 23:02:57 10° N
Meteor 2-19 Rocket 4.4 22:55:02 26° S 22:58:37 78° E 23:04:45 10° NNE
H-2A R/B 2.5 22:55:56 26° S 22:58:55 61° WSW 23:04:12 10° NNW
Lacrosse 5 4.1 23:01:49 11° E 23:01:49 11° E 23:02:11 10° E
Cosmos 2082 Rocket 2.5 22:56:43 10° NNW 23:02:21 61° WSW 23:04:56 32° S
CZ-4C R/B 4.4 23:00:51 26° SW 23:02:25 38° W 23:06:15 10° NNW
SL-8 R/B 3.9 22:57:47 10° W 23:02:37 73° N 23:07:25 10° E
Cosmos 1486 Rocket 4.4 22:59:00 10° NNW 23:04:16 55° ENE 23:06:20 34° SE
BREEZE-M DEB (TANK) 4.0 22:57:32 10° WNW 23:05:06 28° WSW 23:06:23 24° SSW
Meteor 1-11 Rocket 4.4 23:05:10 32° SE 23:06:55 40° E 23:12:16 10° NNE
Timation 1 Rocket 4.4 23:05:08 32° S 23:07:46 57° ESE 23:13:38 10° NE
Cosmos 2151 Rocket 4.2 23:07:18 23° SSW 23:09:58 53° WNW 23:14:27 10° N
Gbstr 26 Del rocket 3.2 23:07:18 10° WNW 23:12:17 72° NNE 23:13:58 36° E
ATLAS 2AS CENTAUR R/B 4.4 23:10:51 10° NW 23:18:13 35° NNE 23:25:22 10° E
Cosmos 2297 4.1 23:12:34 10° SW 23:18:14 65° WNW 23:23:58 10° NNE
Cosmos 1536 4.0 23:19:29 29° E 23:19:29 29° E 23:22:44 10° NNE
SAR-Lupe-2 4.1 23:19:53 45° SW 23:20:20 49° W 23:23:50 10° NNW
Cosmos 1400 Rocket 3.7 23:21:35 34° E 23:21:35 34° E 23:25:14 10° NNE
Cosmos 1934 Rocket 4.4 23:23:10 35° SE 23:24:56 45° E 23:30:39 10° NNE
ALOS 2 3.7 23:26:47 29° E 23:27:43 31° ENE 23:31:36 10° N
NOSS 3-1 (C) 4.1 23:21:31 10° NW 23:28:56 75° NE 23:33:31 29° SE
Spot 2 4.2 23:26:17 10° N 23:30:42 69° WNW 23:32:00 43° SW
CZ-4C R/B 4.2 23:33:30 34° ENE 23:33:40 34° ENE 23:37:05 10° N
Cosmos 1025 Rocket 3.1 23:30:44 10° N 23:35:06 63° E 23:35:40 57° ESE
Okean 1-7 Rocket 3.8 23:33:11 10° NNW 23:37:40 63° W 23:38:35 50° SSW
USA 234 3.2 23:31:25 10° NE 23:38:00 89° SE 23:44:33 10° SW
Cosmos 1689 Rocket 4.3 23:38:23 20° ENE 23:38:23 20° ENE 23:40:32 10° NNE
Okean 1 Rocket 3.2 23:37:09 49° SSW 23:38:15 73° W 23:42:45 10° N
Cosmos 1300 Rocket 3.9 23:37:48 42° SW 23:39:04 61° WNW 23:43:30 10° N
Cosmos 1302 Rocket 4.1 23:38:23 50° SSE 23:39:20 59° ESE 23:44:33 10° NNE
Meteor 1-19 Rocket 4.2 23:34:14 10° N 23:40:08 83° ENE 23:42:00 46° SSE
Meteor 1-23 Rocket 4.4 23:35:25 10° N 23:40:56 59° ENE 23:42:31 43° SE
Okean 1 4.3 23:37:33 10° NNW 23:41:20 38° W 23:42:05 34° WSW
Meteor 2-21 4.4 23:42:45 42° S 23:45:01 82° E 23:51:16 10° N
Cosmos 1535 Rocket 4.5 23:44:50 41° S 23:47:18 85° E 23:53:45 10° N
Cosmos 1809 Rocket 4.4 23:45:26 42° S 23:47:44 86° E 23:53:58 10° N
